Regional Weather Roundup
Issued by NWS Mobile, AL

Home | Current Version | Previous Version | Text Only | Print | Product List | Glossary On
Versions: 1 2 3 4 5 6 7 8 9 10 11 12 13 14 15 16 17 18 19 20 21 22 23 24 25 26 27 28 29 30 31 32 33 34 35 36 37 38 39 40 41 42 43 44 45 46 47 48 49 50
000
ASUS44 KMOB 261613
RWRMOB
REGIONAL WEATHER ROUNDUP
NATIONAL WEATHER SERVICE MOBILE AL
1100 AM CDT TUE SEP 26 2017

NOTE: "FAIR" INDICATES FEW OR NO CLOUDS BELOW 12,000 FEET WITH NO
      SIGNIFICANT WEATHER AND/OR OBSTRUCTIONS TO VISIBILITY.

  * THESE STATIONS ARE PART OF THE UNIVERSITY OF SOUTH ALABAMA
    MESONET AND ARE NOT UNDER NWS OR FAA QUALITY CONTROL.

ALZ061>064-261700-
COASTAL ALABAMA

CITY           SKY/WX    TMP DP  RH WIND       PRES   REMARKS
MOBILE REG APT MOSUNNY   84  73  69 SE3       29.97S
BROOKLEY FIELD MOSUNNY   84  76  76 E7        29.98R
USA CAMPUS*    NOT AVBL
DOG RIVER*     NOT AVBL


CITY           SKY/WX    TMP DP  RH WIND       PRES   REMARKS
GULF SHORES    PTSUNNY   83  75  75 CALM      29.95S

$$

ALZ051>060-261700-
INTERIOR SOUTHWEST AND SOUTH CENTRAL ALABAMA

CITY           SKY/WX    TMP DP  RH WIND       PRES   REMARKS
GREENVILLE     SUNNY     87  60  40 VRB3      29.98S
EVERGREEN      SUNNY     86  64  47 SE7       29.98S
ATMORE*          N/A    N/A N/A N/A CALM        N/A
ANDALUSIA/OPP  SUNNY     91  61  36 VRB5      29.97S
ANDALUSIA*       N/A     84  64  51 NE6       29.98S
FLORALA APT    NOT AVBL
FLORALA*         N/A     86  66  51 E3        30.64F

$$

FLZ001>006-261700-
WESTERN FLORIDA PANHANDLE

CITY           SKY/WX    TMP DP  RH WIND       PRES   REMARKS
PENSACOLA      MOSUNNY   87  72  60 E5        29.95S
NAS PENSACOLA  MOSUNNY   85  73  67 SE8       29.95R
MILTON         MOSUNNY   86  72  62 CALM      29.96S
WHTNG S FIELD  MOSUNNY   89  73  59 NE6       29.95F HX  97


CITY           SKY/WX    TMP DP  RH WIND       PRES   REMARKS
JAY*             N/A     86  68  54 E2        29.96S
DUKE FIELD     MOSUNNY   86  69  56 N3        29.95F
CRESTVIEW      SUNNY     87  70  56 CALM      29.97S
VALPARAISO     MOSUNNY   86  69  56 E3        29.95S
DESTIN         SUNNY     88  71  57 CALM      29.95S

$$

MSZ076-079-261700-
INTERIOR SOUTHEAST MISSISSIPPI

CITY           SKY/WX    TMP DP  RH WIND       PRES   REMARKS
LEAKESVILLE*     N/A     82  73  74 S3        29.98S
AGRICOLA*        N/A     82  75  78 CALM      29.96S

$$

MARINE OBSERVATIONS

STATION/POSITION TIME  TEMP    WIND        PRES    WAVE
                       AIR SEA DIR/SP/G            HT/PER
                 (UTC) (F)     (DEG/KT/KT) (MB)    (FT/S)
PASCAGOULA       1548   77      50/  4/  5 1014.5R
PETIT BOIS ISLND 1548   78      70/  6/  7 1015.4R
GRAND BAY        1430   79      50/  4     1015.0S
KATRINA CUT      1530   80      60/  4     1015.2R
CEDAR POINT      1530   80      90/  4     1014.9R
E DAUPHIN ISLAND 1600   80      50/  4/  4 1014.3R
MIDDLE BAY LIGHT 1530   81      90/  2     1014.9R
USCG MOBILE BAY  1548   80 83  130/  4/  5 1014.7R
STATE DOCKS      1542   87 82              1014.5R
MEAHER PARK      1530   81     210/  2     1014.6S
WEEKS BAY        1445   84                 1014.0S
FORT MORGAN      1548   84     150/  2/  4   N/A
12 S ORANGE BCH  1550   80 82   80/  8/  8 1014.1R   1/ 5
PENSACOLA BAY    1542   83 81              1014.4S
64 S DAUPHIN ISL 1550   83 83  100/  6/  8 1014.1R   2/ 6
67 S FORT MORGAN 1530   79      40/  2     1014.2R

$$

SELECTED LOCATIONS ACROSS THE REGION

CITY           SKY/WX    TMP DP  RH WIND       PRES   REMARKS
NEW ORLEANS    PTSUNNY   85  74  69 NE8       29.94R
GULFPORT       MOSUNNY   81  72  74 E5        29.95S
PASCAGOULA AP  LGT RAIN  76  71  85 SE3       29.96S
PASCAGOULA*      N/A    N/A N/A N/A NE3         N/A
HATTIESBURG    SUNNY     83  74  74 VRB6      29.97F
LAUREL         SUNNY     82  73  74 SE6       29.98S
MERIDIAN       SUNNY     86  71  60 VRB5      29.98F
JACKSON        MOSUNNY   85  71  63 VRB3      29.98S
MONTGOMERY     SUNNY     86  64  47 E5        29.99S
TROY           SUNNY     85  64  49 VRB3      29.99S
ASHFORD*         N/A     84  64  51 NE6       29.98S
DOTHAN         SUNNY     86  64  47 NE3       30.00F
PANAMA CITY    MOSUNNY   85  71  63 CALM      29.94S

$$




USA.gov is the U.S. government's official web portal to all federal, state and local government web resources and services.